Time,TemperatureF,DewpointF,PressureIn,WindDirection,WindDirectionDegrees,WindSpeedMPH,WindSpeedGustMPH,Humidity,HourlyPrecipIn,Conditions,Clouds,dailyrainin,SoftwareType,DateUTC
2013-05-06 00:00:00,55.4,45.0,29.81,SSE,162,0.0,0.0,68,0.00,,---,0.00,VWS V13.00,2013-05-06 07:00:00,
2013-05-06 00:05:00,55.3,45.7,29.82,SSE,162,0.0,0.0,70,0.00,,---,0.00,VWS V13.00,2013-05-06 07:05:00,
2013-05-06 00:10:00,55.0,45.0,29.82,SSE,162,0.0,0.0,69,0.00,,---,0.00,VWS V13.00,2013-05-06 07:10:00,
2013-05-06 00:15:00,54.8,44.1,29.82,SSE,162,0.0,0.0,67,0.00,,---,0.00,VWS V13.00,2013-05-06 07:15:00,
2013-05-06 00:20:00,54.5,44.2,29.82,SSE,162,0.0,0.0,68,0.00,,---,0.00,VWS V13.00,2013-05-06 07:20:00,
2013-05-06 00:25:00,54.4,44.1,29.82,SSE,162,0.0,0.0,68,0.00,,---,0.00,VWS V13.00,2013-05-06 07:25:00,
2013-05-06 00:30:00,54.2,44.3,29.82,SSE,162,0.0,0.0,69,0.00,,---,0.00,VWS V13.00,2013-05-06 07:30:00,
2013-05-06 00:35:00,53.9,43.6,29.82,SSE,162,0.0,0.0,68,0.00,,---,0.00,VWS V13.00,2013-05-06 07:35:00,
2013-05-06 00:40:00,53.8,43.5,29.82,SSE,162,0.0,0.0,68,0.00,,---,0.00,VWS V13.00,2013-05-06 07:40:00,
2013-05-06 00:45:00,53.6,43.7,29.82,SSE,162,0.0,0.0,69,0.00,,---,0.00,VWS V13.00,2013-05-06 07:45:00,
2013-05-06 00:50:00,53.3,43.4,29.82,SSE,162,0.0,0.0,69,0.00,,---,0.00,VWS V13.00,2013-05-06 07:50:00,
2013-05-06 00:55:00,53.2,43.7,29.82,SSE,162,0.0,0.0,70,0.00,,---,0.00,VWS V13.00,2013-05-06 07:55:00,
2013-05-06 01:00:00,52.9,43.4,29.82,SSE,162,0.0,0.0,70,0.00,,---,0.00,VWS V13.00,2013-05-06 08:00:00,
2013-05-06 01:05:00,52.8,43.3,29.82,SSE,162,0.0,0.0,70,0.00,,---,0.00,VWS V13.00,2013-05-06 08:05:00,
2013-05-06 01:10:00,52.6,43.1,29.82,SSE,162,0.0,0.0,70,0.00,,---,0.00,VWS V13.00,2013-05-06 08:10:00,
2013-05-06 01:15:00,52.5,42.6,29.82,SSE,162,0.0,0.0,69,0.00,,---,0.00,VWS V13.00,2013-05-06 08:15:00,
2013-05-06 01:20:00,52.3,42.5,29.82,SSE,162,0.0,0.0,69,0.00,,---,0.00,VWS V13.00,2013-05-06 08:20:00,
2013-05-06 01:25:00,52.0,42.5,29.82,SSE,162,0.0,0.0,70,0.00,,---,0.00,VWS V13.00,2013-05-06 08:25:00,
2013-05-06 01:30:00,51.9,42.4,29.82,SSE,162,0.0,0.0,70,0.00,,---,0.00,VWS V13.00,2013-05-06 08:30:00,
2013-05-06 01:35:00,51.7,41.9,29.82,SSE,162,0.0,0.0,69,0.00,,---,0.00,VWS V13.00,2013-05-06 08:35:00,
2013-05-06 01:40:00,51.7,41.5,29.82,SSE,162,0.0,0.0,68,0.00,,---,0.00,VWS V13.00,2013-05-06 08:40:00,
2013-05-06 01:45:00,51.6,42.2,29.82,SSE,162,0.0,0.0,70,0.00,,---,0.00,VWS V13.00,2013-05-06 08:45:00,
2013-05-06 01:50:00,51.6,42.5,29.82,SSE,162,0.0,0.0,71,0.00,,---,0.00,VWS V13.00,2013-05-06 08:50:00,
2013-05-06 01:55:00,51.4,41.6,29.82,SSE,162,0.0,0.0,69,0.00,,---,0.00,VWS V13.00,2013-05-06 08:55:00,
2013-05-06 02:00:00,51.4,42.0,29.82,SSE,162,0.0,0.0,70,0.00,,---,0.00,VWS V13.00,2013-05-06 09:00:00,
2013-05-06 02:05:00,51.4,42.3,29.82,SSE,162,0.0,0.0,71,0.00,,---,0.00,VWS V13.00,2013-05-06 09:05:00,
2013-05-06 02:10:00,51.4,43.0,29.82,SSE,162,0.0,0.0,73,0.00,,---,0.00,VWS V13.00,2013-05-06 09:10:00,
2013-05-06 02:15:00,51.3,42.6,29.82,SSE,162,0.0,0.0,72,0.00,,---,0.00,VWS V13.00,2013-05-06 09:15:00,
2013-05-06 02:20:00,51.3,42.6,29.82,SSE,162,0.0,0.0,72,0.00,,---,0.00,VWS V13.00,2013-05-06 09:20:00,
2013-05-06 02:25:00,51.3,42.2,29.82,SSE,162,0.0,0.0,71,0.00,,---,0.00,VWS V13.00,2013-05-06 09:25:00,
2013-05-06 02:30:00,51.1,42.0,29.82,SSE,162,0.0,0.0,71,0.00,,---,0.00,VWS V13.00,2013-05-06 09:30:00,
2013-05-06 02:35:00,51.0,41.9,29.82,SSE,162,0.0,0.0,71,0.00,,---,0.00,VWS V13.00,2013-05-06 09:35:00,
2013-05-06 02:40:00,50.8,41.8,29.82,SSE,162,0.0,0.0,71,0.00,,---,0.00,VWS V13.00,2013-05-06 09:40:00,
2013-05-06 02:45:00,50.7,42.4,29.82,SSE,162,0.0,0.0,73,0.00,,---,0.00,VWS V13.00,2013-05-06 09:45:00,
2013-05-06 02:50:00,50.5,41.8,29.82,SSE,162,0.0,0.0,72,0.00,,---,0.00,VWS V13.00,2013-05-06 09:50:00,
2013-05-06 02:55:00,50.4,41.7,29.82,SSE,162,0.0,0.0,72,0.00,,---,0.00,VWS V13.00,2013-05-06 09:55:00,
2013-05-06 03:00:00,50.2,41.2,29.82,SSE,162,0.0,0.0,71,0.00,,---,0.00,VWS V13.00,2013-05-06 10:00:00,
2013-05-06 03:05:00,50.1,41.4,29.82,SSE,162,0.0,0.0,72,0.00,,---,0.00,VWS V13.00,2013-05-06 10:05:00,
2013-05-06 03:10:00,50.1,42.2,29.82,SSE,162,0.0,0.0,74,0.00,,---,0.00,VWS V13.00,2013-05-06 10:10:00,
2013-05-06 03:15:00,50.1,41.8,29.82,SSE,162,0.0,0.0,73,0.00,,---,0.00,VWS V13.00,2013-05-06 10:15:00,
2013-05-06 03:20:00,49.9,41.6,29.82,SSE,162,0.0,0.0,73,0.00,,---,0.00,VWS V13.00,2013-05-06 10:20:00,
2013-05-06 03:25:00,49.9,41.2,29.82,SSE,162,0.0,1.0,72,0.00,,---,0.00,VWS V13.00,2013-05-06 10:25:00,
2013-05-06 03:30:00,49.8,41.5,29.82,SSE,162,0.0,1.0,73,0.00,,---,0.00,VWS V13.00,2013-05-06 10:30:00,
2013-05-06 03:35:00,49.8,41.9,29.82,SSE,162,0.0,1.0,74,0.00,,---,0.00,VWS V13.00,2013-05-06 10:35:00,
2013-05-06 03:40:00,49.8,41.5,29.82,SSE,162,0.0,0.0,73,0.00,,---,0.00,VWS V13.00,2013-05-06 10:40:00,
2013-05-06 03:45:00,49.8,41.9,29.82,SSE,162,0.0,0.0,74,0.00,,---,0.00,VWS V13.00,2013-05-06 10:45:00,
2013-05-06 03:50:00,49.6,41.7,29.82,SSE,162,0.0,0.0,74,0.00,,---,0.00,VWS V13.00,2013-05-06 10:50:00,
2013-05-06 03:55:00,49.6,41.3,29.82,SSE,162,0.0,0.0,73,0.00,,---,0.00,VWS V13.00,2013-05-06 10:55:00,
2013-05-06 04:00:00,49.5,41.2,29.82,SSE,162,0.0,0.0,73,0.00,,---,0.00,VWS V13.00,2013-05-06 11:00:00,
2013-05-06 04:05:00,49.5,41.2,29.83,SSE,162,0.0,0.0,73,0.00,,---,0.00,VWS V13.00,2013-05-06 11:05:00,
2013-05-06 04:10:00,49.5,41.6,29.83,SSE,162,0.0,0.0,74,0.00,,---,0.00,VWS V13.00,2013-05-06 11:10:00,
2013-05-06 04:15:00,49.5,41.9,29.83,SSE,162,0.0,0.0,75,0.00,,---,0.00,VWS V13.00,2013-05-06 11:15:00,
2013-05-06 04:20:00,49.4,41.8,29.83,SSE,162,0.0,0.0,75,0.00,,---,0.00,VWS V13.00,2013-05-06 11:20:00,
2013-05-06 04:25:00,49.4,41.5,29.83,SSE,162,0.0,0.0,74,0.00,,---,0.00,VWS V13.00,2013-05-06 11:25:00,
2013-05-06 04:30:00,49.2,41.6,29.83,SSE,162,0.0,0.0,75,0.00,,---,0.00,VWS V13.00,2013-05-06 11:30:00,
2013-05-06 04:35:00,49.1,41.2,29.83,SSE,162,0.0,0.0,74,0.00,,---,0.00,VWS V13.00,2013-05-06 11:35:00,
2013-05-06 04:40:00,49.1,41.5,29.83,SSE,162,0.0,0.0,75,0.00,,---,0.00,VWS V13.00,2013-05-06 11:40:00,
2013-05-06 04:45:00,48.9,41.3,29.83,SSE,162,0.0,0.0,75,0.00,,---,0.00,VWS V13.00,2013-05-06 11:45:00,
2013-05-06 04:50:00,48.9,41.7,29.82,SSE,162,0.0,0.0,76,0.00,,---,0.00,VWS V13.00,2013-05-06 11:50:00,
2013-05-06 04:55:00,48.9,42.0,29.82,SSE,162,0.0,0.0,77,0.00,,---,0.00,VWS V13.00,2013-05-06 11:55:00,
2013-05-06 05:00:00,48.8,41.6,29.82,SSE,162,0.0,0.0,76,0.00,,---,0.00,VWS V13.00,2013-05-06 12:00:00,
2013-05-06 05:05:00,48.8,41.9,29.83,SSE,162,0.0,0.0,77,0.00,,---,0.00,VWS V13.00,2013-05-06 12:05:00,
2013-05-06 05:10:00,48.6,41.0,29.83,SSE,162,0.0,0.0,75,0.00,,---,0.00,VWS V13.00,2013-05-06 12:10:00,
2013-05-06 05:15:00,48.6,41.0,29.83,SE,133,0.0,0.0,75,0.00,,---,0.00,VWS V13.00,2013-05-06 12:15:00,
2013-05-06 05:20:00,48.5,40.6,29.83,SE,133,0.0,0.0,74,0.00,,---,0.00,VWS V13.00,2013-05-06 12:20:00,
2013-05-06 05:25:00,48.5,41.3,29.83,SE,133,0.0,0.0,76,0.00,,---,0.00,VWS V13.00,2013-05-06 12:25:00,
2013-05-06 05:30:00,48.5,41.3,29.83,SE,133,0.0,0.0,76,0.00,,---,0.00,VWS V13.00,2013-05-06 12:30:00,
2013-05-06 05:35:00,48.3,41.1,29.83,SE,133,0.0,0.0,76,0.00,,---,0.00,VWS V13.00,2013-05-06 12:35:00,
2013-05-06 05:40:00,48.3,41.4,29.83,SE,133,0.0,0.0,77,0.00,,---,0.00,VWS V13.00,2013-05-06 12:40:00,
2013-05-06 05:45:00,48.3,41.8,29.83,SE,133,0.0,0.0,78,0.00,,---,0.00,VWS V13.00,2013-05-06 12:45:00,
2013-05-06 05:50:00,48.3,41.8,29.83,SE,133,0.0,0.0,78,0.00,,---,0.00,VWS V13.00,2013-05-06 12:50:00,
2013-05-06 05:55:00,48.2,41.7,29.83,SE,133,0.0,0.0,78,0.00,,---,0.00,VWS V13.00,2013-05-06 12:55:00,
2013-05-06 06:00:00,48.2,41.7,29.83,SE,133,0.0,0.0,78,0.00,,---,0.00,VWS V13.00,2013-05-06 13:00:00,
2013-05-06 06:05:00,48.2,41.7,29.83,SE,133,0.0,0.0,78,0.00,,---,0.00,VWS V13.00,2013-05-06 13:05:00,
2013-05-06 06:10:00,48.0,41.2,29.83,SE,133,0.0,0.0,77,0.00,,---,0.00,VWS V13.00,2013-05-06 13:10:00,
2013-05-06 06:15:00,48.0,41.2,29.83,SE,133,0.0,0.0,77,0.00,,---,0.00,VWS V13.00,2013-05-06 13:15:00,
2013-05-06 06:20:00,48.0,41.2,29.83,SE,133,0.0,0.0,77,0.00,,---,0.00,VWS V13.00,2013-05-06 13:20:00,
2013-05-06 06:25:00,48.0,40.8,29.84,SE,133,0.0,0.0,76,0.00,,---,0.00,VWS V13.00,2013-05-06 13:25:00,
2013-05-06 06:30:00,48.0,40.8,29.84,SE,133,0.0,0.0,76,0.00,,---,0.00,VWS V13.00,2013-05-06 13:30:00,
2013-05-06 06:35:00,48.0,40.8,29.84,SE,133,0.0,0.0,76,0.00,,---,0.00,VWS V13.00,2013-05-06 13:35:00,
2013-05-06 06:40:00,48.0,41.2,29.84,SE,126,0.0,0.0,77,0.00,,---,0.00,VWS V13.00,2013-05-06 13:40:00,
2013-05-06 06:45:00,48.2,41.7,29.84,SE,133,0.0,0.0,78,0.00,,---,0.00,VWS V13.00,2013-05-06 13:45:00,
2013-05-06 06:50:00,48.2,41.7,29.84,SE,133,0.0,0.0,78,0.00,,---,0.00,VWS V13.00,2013-05-06 13:50:00,
2013-05-06 06:55:00,48.2,42.0,29.84,SE,133,0.0,0.0,79,0.00,,---,0.00,VWS V13.00,2013-05-06 13:55:00,
2013-05-06 07:00:00,48.3,42.4,29.84,SE,133,0.0,0.0,80,0.00,,---,0.00,VWS V13.00,2013-05-06 14:00:00,
2013-05-06 07:05:00,48.3,42.4,29.84,SE,133,0.0,0.0,80,0.00,,---,0.00,VWS V13.00,2013-05-06 14:05:00,
2013-05-06 07:10:00,48.5,42.6,29.85,SE,133,0.0,0.0,80,0.00,,---,0.00,VWS V13.00,2013-05-06 14:10:00,
2013-05-06 07:15:00,48.6,43.0,29.85,SE,133,0.0,0.0,81,0.00,,---,0.00,VWS V13.00,2013-05-06 14:15:00,
2013-05-06 07:20:00,48.6,42.7,29.85,SE,133,0.0,0.0,80,0.00,,---,0.00,VWS V13.00,2013-05-06 14:20:00,
2013-05-06 07:25:00,48.8,42.6,29.85,SE,133,0.0,0.0,79,0.00,,---,0.00,VWS V13.00,2013-05-06 14:25:00,
2013-05-06 07:30:00,48.8,42.9,29.85,SE,133,0.0,0.0,80,0.00,,---,0.00,VWS V13.00,2013-05-06 14:30:00,
2013-05-06 07:35:00,48.9,43.0,29.85,SE,133,0.0,0.0,80,0.00,,---,0.00,VWS V13.00,2013-05-06 14:35:00,
2013-05-06 07:40:00,49.2,43.3,29.85,SE,133,0.0,0.0,80,0.00,,---,0.00,VWS V13.00,2013-05-06 14:40:00,
2013-05-06 07:45:00,49.4,43.5,29.85,SE,133,0.0,0.0,80,0.00,,---,0.00,VWS V13.00,2013-05-06 14:45:00,
2013-05-06 07:50:00,49.6,43.4,29.85,SE,133,0.0,0.0,79,0.00,,---,0.00,VWS V13.00,2013-05-06 14:50:00,
2013-05-06 07:55:00,49.9,44.0,29.85,SE,133,0.0,0.0,80,0.00,,---,0.00,VWS V13.00,2013-05-06 14:55:00,
2013-05-06 08:00:00,50.8,44.5,29.85,SE,133,0.0,0.0,79,0.00,,---,0.00,VWS V13.00,2013-05-06 15:00:00,
2013-05-06 08:05:00,51.7,45.4,29.85,SE,133,0.0,0.0,79,0.00,,---,0.00,VWS V13.00,2013-05-06 15:05:00,
2013-05-06 08:10:00,52.8,45.8,29.85,SE,133,0.0,0.0,77,0.00,,---,0.00,VWS V13.00,2013-05-06 15:10:00,
2013-05-06 08:15:00,53.6,45.2,29.85,SE,133,0.0,0.0,73,0.00,,---,0.00,VWS V13.00,2013-05-06 15:15:00,
2013-05-06 08:20:00,54.5,44.2,29.85,SE,133,0.0,0.0,68,0.00,,---,0.00,VWS V13.00,2013-05-06 15:20:00,
2013-05-06 08:25:00,55.6,44.0,29.85,SE,133,0.0,0.0,65,0.00,,---,0.00,VWS V13.00,2013-05-06 15:25:00,
2013-05-06 08:30:00,56.6,42.5,29.85,SE,133,0.0,0.0,59,0.00,,---,0.00,VWS V13.00,2013-05-06 15:30:00,
2013-05-06 08:35:00,57.8,45.3,29.85,SE,133,0.0,0.0,63,0.00,,---,0.00,VWS V13.00,2013-05-06 15:35:00,
2013-05-06 08:40:00,58.9,43.7,29.85,SE,133,0.0,0.0,57,0.00,,---,0.00,VWS V13.00,2013-05-06 15:40:00,
2013-05-06 08:45:00,59.8,44.1,29.85,SE,133,0.0,0.0,56,0.00,,---,0.00,VWS V13.00,2013-05-06 15:45:00,
2013-05-06 08:50:00,60.7,44.5,29.85,SE,133,0.0,0.0,55,0.00,,---,0.00,VWS V13.00,2013-05-06 15:50:00,
2013-05-06 08:55:00,61.5,40.5,29.85,SE,133,0.0,0.0,46,0.00,,---,0.00,VWS V13.00,2013-05-06 15:55:00,
2013-05-06 09:00:00,62.4,40.2,29.85,SE,133,0.0,0.0,44,0.00,,---,0.00,VWS V13.00,2013-05-06 16:00:00,
2013-05-06 09:05:00,63.5,42.9,29.85,SE,133,0.0,0.0,47,0.00,,---,0.00,VWS V13.00,2013-05-06 16:05:00,
2013-05-06 09:10:00,64.3,43.1,29.85,SE,133,0.0,0.0,46,0.00,,---,0.00,VWS V13.00,2013-05-06 16:10:00,
2013-05-06 09:15:00,65.6,43.1,29.85,SE,133,0.0,0.0,44,0.00,,---,0.00,VWS V13.00,2013-05-06 16:15:00,
2013-05-06 09:20:00,66.1,42.4,29.85,SE,133,0.0,0.0,42,0.00,,---,0.00,VWS V13.00,2013-05-06 16:20:00,
2013-05-06 09:25:00,66.6,40.2,29.85,SE,133,0.0,0.0,38,0.00,,---,0.00,VWS V13.00,2013-05-06 16:25:00,
2013-05-06 09:30:00,66.8,41.1,29.85,SE,133,0.0,0.0,39,0.00,,---,0.00,VWS V13.00,2013-05-06 16:30:00,
2013-05-06 09:35:00,66.8,41.1,29.85,SE,133,0.0,0.0,39,0.00,,---,0.00,VWS V13.00,2013-05-06 16:35:00,
2013-05-06 09:40:00,66.9,42.5,29.85,SE,133,0.0,0.0,41,0.00,,---,0.00,VWS V13.00,2013-05-06 16:40:00,
2013-05-06 09:45:00,67.1,43.3,29.85,SE,133,0.0,0.0,42,0.00,,---,0.00,VWS V13.00,2013-05-06 16:45:00,
2013-05-06 09:50:00,67.4,40.9,29.85,SE,133,0.0,0.0,38,0.00,,---,0.00,VWS V13.00,2013-05-06 16:50:00,
2013-05-06 09:55:00,69.8,46.3,29.85,SE,133,0.0,0.0,43,0.00,,---,0.00,VWS V13.00,2013-05-06 16:55:00,
2013-05-06 10:00:00,69.8,40.2,29.85,SE,133,0.0,0.0,34,0.00,,---,0.00,VWS V13.00,2013-05-06 17:00:00,
2013-05-06 10:05:00,69.1,39.6,29.85,SE,133,0.0,0.0,34,0.00,,---,0.00,VWS V13.00,2013-05-06 17:05:00,
2013-05-06 10:10:00,69.9,42.5,29.85,SE,133,0.0,0.0,37,0.00,,---,0.00,VWS V13.00,2013-05-06 17:10:00,
2013-05-06 10:15:00,71.3,43.0,29.85,SE,133,0.0,0.0,36,0.00,,---,0.00,VWS V13.00,2013-05-06 17:15:00,
2013-05-06 10:20:00,71.5,45.3,29.85,SE,133,0.0,1.0,39,0.00,,---,0.00,VWS V13.00,2013-05-06 17:20:00,
2013-05-06 10:25:00,70.1,45.3,29.85,East,82,0.0,3.0,41,0.00,,---,0.00,VWS V13.00,2013-05-06 17:25:00,
2013-05-06 10:30:00,70.4,46.9,29.85,East,82,0.0,3.0,43,0.00,,---,0.00,VWS V13.00,2013-05-06 17:30:00,
2013-05-06 10:35:00,71.6,46.7,29.85,East,82,0.0,3.0,41,0.00,,---,0.00,VWS V13.00,2013-05-06 17:35:00,
2013-05-06 10:40:00,72.1,48.4,29.85,East,82,0.0,0.0,43,0.00,,---,0.00,VWS V13.00,2013-05-06 17:40:00,
2013-05-06 10:45:00,71.8,46.9,29.85,East,82,0.0,0.0,41,0.00,,---,0.00,VWS V13.00,2013-05-06 17:45:00,
2013-05-06 10:50:00,73.0,49.8,29.85,East,82,0.0,0.0,44,0.00,,---,0.00,VWS V13.00,2013-05-06 17:50:00,
2013-05-06 10:55:00,74.6,47.3,29.85,East,82,0.0,0.0,38,0.00,,---,0.00,VWS V13.00,2013-05-06 17:55:00,
2013-05-06 11:00:00,74.4,47.2,29.85,East,82,0.0,0.0,38,0.00,,---,0.00,VWS V13.00,2013-05-06 18:00:00,
2013-05-06 11:05:00,75.1,50.5,29.85,East,82,0.0,0.0,42,0.00,,---,0.00,VWS V13.00,2013-05-06 18:05:00,
2013-05-06 11:10:00,75.1,47.8,29.84,East,82,0.0,1.0,38,0.00,,---,0.00,VWS V13.00,2013-05-06 18:10:00,
2013-05-06 11:15:00,75.6,47.5,29.84,East,82,0.0,1.0,37,0.00,,---,0.00,VWS V13.00,2013-05-06 18:15:00,
2013-05-06 11:20:00,76.8,49.3,29.84,East,82,0.0,1.0,38,0.00,,---,0.00,VWS V13.00,2013-05-06 18:20:00,
2013-05-06 11:25:00,77.7,51.5,29.84,ENE,64,0.0,1.0,40,0.00,,---,0.00,VWS V13.00,2013-05-06 18:25:00,
2013-05-06 11:30:00,77.6,49.3,29.84,ENE,64,0.0,1.0,37,0.00,,---,0.00,VWS V13.00,2013-05-06 18:30:00,
2013-05-06 11:35:00,77.4,48.4,29.84,ENE,64,0.0,1.0,36,0.00,,---,0.00,VWS V13.00,2013-05-06 18:35:00,
2013-05-06 11:40:00,77.0,46.5,29.84,ENE,64,0.0,0.0,34,0.00,,---,0.00,VWS V13.00,2013-05-06 18:40:00,
2013-05-06 11:45:00,77.4,47.6,29.84,NE,44,0.0,0.0,35,0.00,,---,0.00,VWS V13.00,2013-05-06 18:45:00,
2013-05-06 11:50:00,77.9,48.1,29.84,NE,51,0.0,1.0,35,0.00,,---,0.00,VWS V13.00,2013-05-06 18:50:00,
2013-05-06 11:55:00,78.8,47.3,29.84,WNW,282,0.0,1.0,33,0.00,,---,0.00,VWS V13.00,2013-05-06 18:55:00,
2013-05-06 12:00:00,79.4,47.8,29.84,WNW,282,0.0,1.0,33,0.00,,---,0.00,VWS V13.00,2013-05-06 19:00:00,
2013-05-06 12:05:00,79.4,43.5,29.84,NNW,346,0.0,1.0,28,0.00,,---,0.00,VWS V13.00,2013-05-06 19:05:00,
2013-05-06 12:10:00,79.9,52.0,29.83,NNE,17,0.0,0.0,38,0.00,,---,0.00,VWS V13.00,2013-05-06 19:10:00,
2013-05-06 12:15:00,79.4,46.2,29.83,East,79,1.0,3.0,31,0.00,,---,0.00,VWS V13.00,2013-05-06 19:15:00,
2013-05-06 12:20:00,79.4,47.8,29.83,ENE,64,0.0,3.0,33,0.00,,---,0.00,VWS V13.00,2013-05-06 19:20:00,
2013-05-06 12:25:00,80.3,48.6,29.83,NE,34,0.0,3.0,33,0.00,,---,0.00,VWS V13.00,2013-05-06 19:25:00,
2013-05-06 12:30:00,80.3,51.7,29.83,NE,34,0.0,3.0,37,0.00,,---,0.00,VWS V13.00,2013-05-06 19:30:00,
2013-05-06 12:35:00,80.3,49.4,29.83,WNW,285,0.0,3.0,34,0.00,,---,0.00,VWS V13.00,2013-05-06 19:35:00,
2013-05-06 12:40:00,80.9,46.6,29.82,WNW,285,0.0,1.0,30,0.00,,---,0.00,VWS V13.00,2013-05-06 19:40:00,
2013-05-06 12:45:00,80.7,46.4,29.82,WNW,294,0.0,1.0,30,0.00,,---,0.00,VWS V13.00,2013-05-06 19:45:00,
2013-05-06 12:50:00,81.6,48.1,29.82,NW,311,0.0,1.0,31,0.00,,---,0.00,VWS V13.00,2013-05-06 19:50:00,
2013-05-06 12:55:00,81.6,48.1,29.82,ENE,68,0.0,2.0,31,0.00,,---,0.00,VWS V13.00,2013-05-06 19:55:00,
2013-05-06 13:00:00,81.8,48.2,29.82,NE,47,0.0,2.0,31,0.00,,---,0.00,VWS V13.00,2013-05-06 20:00:00,
2013-05-06 13:05:00,81.4,45.2,29.82,NE,47,0.0,2.0,28,0.00,,---,0.00,VWS V13.00,2013-05-06 20:05:00,
2013-05-06 13:10:00,82.2,47.7,29.82,NE,47,0.0,1.0,30,0.00,,---,0.00,VWS V13.00,2013-05-06 20:10:00,
2013-05-06 13:15:00,83.2,45.8,29.82,North,10,0.0,1.0,27,0.00,,---,0.00,VWS V13.00,2013-05-06 20:15:00,
2013-05-06 13:20:00,83.2,44.8,29.82,North,10,0.0,1.0,26,0.00,,---,0.00,VWS V13.00,2013-05-06 20:20:00,
2013-05-06 13:25:00,83.6,48.0,29.81,NE,51,0.0,1.0,29,0.00,,---,0.00,VWS V13.00,2013-05-06 20:25:00,
2013-05-06 13:30:00,82.8,43.4,29.81,NE,47,0.0,2.0,25,0.00,,---,0.00,VWS V13.00,2013-05-06 20:30:00,
2013-05-06 13:35:00,83.2,45.8,29.81,North,0,0.0,2.0,27,0.00,,---,0.00,VWS V13.00,2013-05-06 20:35:00,
2013-05-06 13:40:00,83.4,46.9,29.81,NE,41,0.0,0.0,28,0.00,,---,0.00,VWS V13.00,2013-05-06 20:40:00,
2013-05-06 13:45:00,83.4,46.9,29.81,NNW,344,0.0,1.0,28,0.00,,---,0.00,VWS V13.00,2013-05-06 20:45:00,
2013-05-06 13:50:00,84.0,46.5,29.81,NNW,344,0.0,1.0,27,0.00,,---,0.00,VWS V13.00,2013-05-06 20:50:00,
2013-05-06 13:55:00,83.8,50.0,29.81,NNW,347,0.0,1.0,31,0.00,,---,0.00,VWS V13.00,2013-05-06 20:55:00,
2013-05-06 14:00:00,83.8,50.0,29.81,NNW,347,0.0,1.0,31,0.00,,---,0.00,VWS V13.00,2013-05-06 21:00:00,
2013-05-06 14:05:00,84.0,47.4,29.81,North,0,0.0,1.0,28,0.00,,---,0.00,VWS V13.00,2013-05-06 21:05:00,
2013-05-06 14:10:00,84.5,48.8,29.81,North,0,0.0,0.0,29,0.00,,---,0.00,VWS V13.00,2013-05-06 21:10:00,
2013-05-06 14:15:00,84.7,48.0,29.81,North,0,0.0,1.0,28,0.00,,---,0.00,VWS V13.00,2013-05-06 21:15:00,
2013-05-06 14:19:00,84.9,49.1,29.81,NW,319,0.0,2.0,29,0.00,,---,0.00,VWS V13.00,2013-05-06 21:19:00,
2013-05-06 14:24:00,84.7,48.0,29.81,North,0,0.0,2.0,28,0.00,,---,0.00,VWS V13.00,2013-05-06 21:24:00,
2013-05-06 14:29:00,85.1,48.4,29.81,North,353,0.0,2.0,28,0.00,,---,0.00,VWS V13.00,2013-05-06 21:29:00,
2013-05-06 14:34:00,85.3,48.5,29.81,North,353,0.0,2.0,28,0.00,,---,0.00,VWS V13.00,2013-05-06 21:34:00,
2013-05-06 14:39:00,85.1,47.4,29.81,North,353,0.0,0.0,27,0.00,,---,0.00,VWS V13.00,2013-05-06 21:39:00,
2013-05-06 14:44:00,85.1,48.4,29.81,North,353,0.0,0.0,28,0.00,,---,0.00,VWS V13.00,2013-05-06 21:44:00,
2013-05-06 14:49:00,85.1,45.4,29.81,NNW,346,0.0,1.0,25,0.00,,---,0.00,VWS V13.00,2013-05-06 21:49:00,
2013-05-06 14:54:00,85.5,44.6,29.80,North,0,0.0,1.0,24,0.00,,---,0.00,VWS V13.00,2013-05-06 21:54:00,
2013-05-06 14:59:00,85.5,41.2,29.80,North,0,0.0,1.0,21,0.00,,---,0.00,VWS V13.00,2013-05-06 21:59:00,
2013-05-06 15:04:00,84.9,41.9,29.80,NNW,340,0.0,2.0,22,0.00,,---,0.00,VWS V13.00,2013-05-06 22:04:00,
2013-05-06 15:09:00,85.3,44.5,29.80,North,357,0.0,0.0,24,0.00,,---,0.00,VWS V13.00,2013-05-06 22:09:00,
2013-05-06 15:14:00,85.9,43.8,29.80,North,357,0.0,0.0,23,0.00,,---,0.00,VWS V13.00,2013-05-06 22:14:00,
2013-05-06 15:19:00,85.5,43.5,29.80,North,357,0.0,1.0,23,0.00,,---,0.00,VWS V13.00,2013-05-06 22:19:00,
2013-05-06 15:24:00,85.1,43.2,29.79,North,0,0.0,1.0,23,0.00,,---,0.00,VWS V13.00,2013-05-06 22:24:00,
2013-05-06 15:29:00,84.9,41.9,29.79,NNW,343,0.0,3.0,22,0.00,,---,0.00,VWS V13.00,2013-05-06 22:29:00,
2013-05-06 15:34:00,85.3,42.2,29.79,NNW,343,0.0,3.0,22,0.00,,---,0.00,VWS V13.00,2013-05-06 22:34:00,
2013-05-06 15:39:00,85.7,44.8,29.79,NNW,337,0.0,1.0,24,0.00,,---,0.00,VWS V13.00,2013-05-06 22:39:00,
2013-05-06 15:44:00,85.7,43.7,29.79,NNW,337,0.0,1.0,23,0.00,,---,0.00,VWS V13.00,2013-05-06 22:44:00,
2013-05-06 15:49:00,85.3,42.2,29.79,NNW,337,0.0,1.0,22,0.00,,---,0.00,VWS V13.00,2013-05-06 22:49:00,
2013-05-06 15:54:00,85.1,43.2,29.79,North,0,0.0,1.0,23,0.00,,---,0.00,VWS V13.00,2013-05-06 22:54:00,
2013-05-06 15:59:00,85.1,42.0,29.79,ENE,61,0.0,1.0,22,0.00,,---,0.00,VWS V13.00,2013-05-06 22:59:00,
2013-05-06 16:04:00,85.7,45.9,29.79,NE,34,0.0,1.0,25,0.00,,---,0.00,VWS V13.00,2013-05-06 23:04:00,
2013-05-06 16:09:00,85.5,43.5,29.78,NE,34,0.0,0.0,23,0.00,,---,0.00,VWS V13.00,2013-05-06 23:09:00,
2013-05-06 16:14:00,85.9,42.7,29.78,North,349,3.0,3.0,22,0.00,,---,0.00,VWS V13.00,2013-05-06 23:14:00,
2013-05-06 16:19:00,85.5,42.3,29.78,NNW,346,0.0,3.0,22,0.00,,---,0.00,VWS V13.00,2013-05-06 23:19:00,
2013-05-06 16:24:00,85.3,42.2,29.78,NNW,346,0.0,3.0,22,0.00,,---,0.00,VWS V13.00,2013-05-06 23:24:00,
2013-05-06 16:29:00,85.5,43.5,29.78,NNW,346,0.0,3.0,23,0.00,,---,0.00,VWS V13.00,2013-05-06 23:29:00,
2013-05-06 16:34:00,85.7,41.3,29.78,NNW,346,0.0,3.0,21,0.00,,---,0.00,VWS V13.00,2013-05-06 23:34:00,
2013-05-06 16:39:00,85.9,43.8,29.77,NNW,346,0.0,1.0,23,0.00,,---,0.00,VWS V13.00,2013-05-06 23:39:00,
2013-05-06 16:44:00,85.7,43.7,29.77,NNW,343,0.0,1.0,23,0.00,,---,0.00,VWS V13.00,2013-05-06 23:44:00,
2013-05-06 16:49:00,85.7,43.7,29.77,NNW,343,0.0,1.0,23,0.00,,---,0.00,VWS V13.00,2013-05-06 23:49:00,
2013-05-06 16:54:00,85.9,42.7,29.77,NNW,344,0.0,1.0,22,0.00,,---,0.00,VWS V13.00,2013-05-06 23:54:00,
2013-05-06 16:59:00,85.5,42.3,29.77,NNW,344,0.0,1.0,22,0.00,,---,0.00,VWS V13.00,2013-05-06 23:59:00,
2013-05-06 17:04:00,85.7,41.3,29.77,NNW,344,0.0,1.0,21,0.00,,---,0.00,VWS V13.00,2013-05-07 00:04:00,
2013-05-06 17:09:00,85.5,41.2,29.77,NNW,344,0.0,0.0,21,0.00,,---,0.00,VWS V13.00,2013-05-07 00:09:00,
2013-05-06 17:14:00,85.3,39.7,29.77,NNW,344,0.0,1.0,20,0.00,,---,0.00,VWS V13.00,2013-05-07 00:14:00,
2013-05-06 17:19:00,85.1,44.3,29.77,NNW,344,0.0,1.0,24,0.00,,---,0.00,VWS V13.00,2013-05-07 00:19:00,
2013-05-06 17:24:00,84.7,42.8,29.77,NNW,344,0.0,1.0,23,0.00,,---,0.00,VWS V13.00,2013-05-07 00:24:00,
2013-05-06 17:29:00,84.9,40.7,29.77,NNW,344,0.0,1.0,21,0.00,,---,0.00,VWS V13.00,2013-05-07 00:29:00,
2013-05-06 17:34:00,84.7,40.5,29.77,NNW,344,0.0,1.0,21,0.00,,---,0.00,VWS V13.00,2013-05-07 00:34:00,
2013-05-06 17:39:00,84.7,41.7,29.77,NNW,344,0.0,0.0,22,0.00,,---,0.00,VWS V13.00,2013-05-07 00:39:00,
2013-05-06 17:44:00,85.1,40.8,29.77,NNW,344,0.0,0.0,21,0.00,,---,0.00,VWS V13.00,2013-05-07 00:44:00,
2013-05-06 17:49:00,85.3,42.2,29.77,NNW,344,0.0,0.0,22,0.00,,---,0.00,VWS V13.00,2013-05-07 00:49:00,
2013-05-06 17:54:00,85.1,42.0,29.77,NNW,344,0.0,0.0,22,0.00,,---,0.00,VWS V13.00,2013-05-07 00:54:00,
2013-05-06 17:59:00,84.9,41.9,29.77,NNW,344,0.0,0.0,22,0.00,,---,0.00,VWS V13.00,2013-05-07 00:59:00,
2013-05-06 18:04:00,84.7,44.0,29.77,NNW,344,0.0,0.0,24,0.00,,---,0.00,VWS V13.00,2013-05-07 01:04:00,
2013-05-06 18:09:00,84.3,43.6,29.77,NNW,344,0.0,0.0,24,0.00,,---,0.00,VWS V13.00,2013-05-07 01:09:00,
2013-05-06 18:14:00,84.0,43.4,29.77,NNW,344,0.0,0.0,24,0.00,,---,0.00,VWS V13.00,2013-05-07 01:14:00,
2013-05-06 18:19:00,83.4,45.0,29.77,NNW,344,0.0,0.0,26,0.00,,---,0.00,VWS V13.00,2013-05-07 01:19:00,
2013-05-06 18:24:00,82.8,45.4,29.76,NNW,344,0.0,0.0,27,0.00,,---,0.00,VWS V13.00,2013-05-07 01:24:00,
2013-05-06 18:29:00,82.4,45.1,29.76,NNW,344,0.0,0.0,27,0.00,,---,0.00,VWS V13.00,2013-05-07 01:29:00,
2013-05-06 18:34:00,82.0,45.7,29.76,NNW,344,0.0,0.0,28,0.00,,---,0.00,VWS V13.00,2013-05-07 01:34:00,
2013-05-06 18:39:00,81.6,46.3,29.76,NNW,344,0.0,0.0,29,0.00,,---,0.00,VWS V13.00,2013-05-07 01:39:00,
2013-05-06 18:44:00,81.1,47.6,29.76,NNW,344,0.0,0.0,31,0.00,,---,0.00,VWS V13.00,2013-05-07 01:44:00,
2013-05-06 18:49:00,80.7,47.3,29.76,NNW,344,0.0,0.0,31,0.00,,---,0.00,VWS V13.00,2013-05-07 01:49:00,
2013-05-06 18:54:00,80.3,46.9,29.76,NNW,344,0.0,0.0,31,0.00,,---,0.00,VWS V13.00,2013-05-07 01:54:00,
2013-05-06 18:59:00,79.9,46.6,29.76,NNW,344,0.0,0.0,31,0.00,,---,0.00,VWS V13.00,2013-05-07 01:59:00,
2013-05-06 19:04:00,79.4,47.8,29.76,NNW,344,0.0,1.0,33,0.00,,---,0.00,VWS V13.00,2013-05-07 02:04:00,
2013-05-06 19:09:00,79.0,49.0,29.76,NNW,344,0.0,0.0,35,0.00,,---,0.00,VWS V13.00,2013-05-07 02:09:00,
2013-05-06 19:14:00,78.8,51.8,29.76,NNW,344,0.0,0.0,39,0.00,,---,0.00,VWS V13.00,2013-05-07 02:14:00,
2013-05-06 19:19:00,78.5,51.5,29.76,NNW,344,0.0,0.0,39,0.00,,---,0.00,VWS V13.00,2013-05-07 02:19:00,
2013-05-06 19:24:00,78.1,52.5,29.77,NNW,344,0.0,0.0,41,0.00,,---,0.00,VWS V13.00,2013-05-07 02:24:00,
2013-05-06 19:29:00,77.9,50.3,29.77,NNW,344,0.0,0.0,38,0.00,,---,0.00,VWS V13.00,2013-05-07 02:29:00,
2013-05-06 19:34:00,77.6,52.1,29.77,NNW,344,0.0,0.0,41,0.00,,---,0.00,VWS V13.00,2013-05-07 02:34:00,
2013-05-06 19:39:00,77.2,52.4,29.77,South,181,0.0,0.0,42,0.00,,---,0.00,VWS V13.00,2013-05-07 02:39:00,
2013-05-06 19:44:00,76.8,53.3,29.77,South,181,0.0,0.0,44,0.00,,---,0.00,VWS V13.00,2013-05-07 02:44:00,
2013-05-06 19:49:00,76.5,53.0,29.77,South,181,0.0,0.0,44,0.00,,---,0.00,VWS V13.00,2013-05-07 02:49:00,
2013-05-06 19:54:00,76.0,53.2,29.77,South,181,0.0,0.0,45,0.00,,---,0.00,VWS V13.00,2013-05-07 02:54:00,
2013-05-06 19:59:00,75.4,53.2,29.77,South,181,0.0,0.0,46,0.00,,---,0.00,VWS V13.00,2013-05-07 02:59:00,
2013-05-06 20:04:00,74.7,52.6,29.77,South,181,0.0,0.0,46,0.00,,---,0.00,VWS V13.00,2013-05-07 03:04:00,
2013-05-06 20:09:00,74.2,53.8,29.78,South,181,0.0,0.0,49,0.00,,---,0.00,VWS V13.00,2013-05-07 03:09:00,
2013-05-06 20:14:00,73.7,53.4,29.78,South,181,0.0,0.0,49,0.00,,---,0.00,VWS V13.00,2013-05-07 03:14:00,
2013-05-06 20:19:00,73.2,52.9,29.78,South,181,0.0,0.0,49,0.00,,---,0.00,VWS V13.00,2013-05-07 03:19:00,
2013-05-06 20:24:00,72.8,54.2,29.78,South,181,0.0,0.0,52,0.00,,---,0.00,VWS V13.00,2013-05-07 03:24:00,
2013-05-06 20:29:00,72.3,53.7,29.78,South,181,0.0,0.0,52,0.00,,---,0.00,VWS V13.00,2013-05-07 03:29:00,
2013-05-06 20:34:00,72.0,54.0,29.78,South,181,0.0,0.0,53,0.00,,---,0.00,VWS V13.00,2013-05-07 03:34:00,
2013-05-06 20:39:00,71.3,53.3,29.78,South,181,0.0,2.0,53,0.00,,---,0.00,VWS V13.00,2013-05-07 03:39:00,
2013-05-06 20:44:00,70.8,52.8,29.78,South,181,0.0,2.0,53,0.00,,---,0.00,VWS V13.00,2013-05-07 03:44:00,
2013-05-06 20:49:00,70.3,52.4,29.78,South,181,0.0,2.0,53,0.00,,---,0.00,VWS V13.00,2013-05-07 03:49:00,
2013-05-06 20:54:00,69.8,52.4,29.79,South,181,0.0,2.0,54,0.00,,---,0.00,VWS V13.00,2013-05-07 03:54:00,
2013-05-06 20:59:00,69.4,53.0,29.79,South,181,0.0,2.0,56,0.00,,---,0.00,VWS V13.00,2013-05-07 03:59:00,
2013-05-06 21:01:00,69.3,53.0,29.79,South,181,0.0,2.0,56,0.00,,---,0.00,VWS V13.00,2013-05-07 04:01:00,
2013-05-06 21:06:00,68.9,53.1,29.80,South,181,0.0,2.0,57,0.00,,---,0.00,VWS V13.00,2013-05-07 04:06:00,
2013-05-06 21:11:00,68.4,53.1,29.80,South,181,0.0,0.0,58,0.00,,---,0.00,VWS V13.00,2013-05-07 04:11:00,
2013-05-06 21:16:00,68.1,53.2,29.80,South,181,0.0,0.0,59,0.00,,---,0.00,VWS V13.00,2013-05-07 04:16:00,
2013-05-06 21:21:00,67.6,52.8,29.80,South,181,0.0,0.0,59,0.00,,---,0.00,VWS V13.00,2013-05-07 04:21:00,
2013-05-06 21:26:00,67.1,52.3,29.80,South,181,0.0,0.0,59,0.00,,---,0.00,VWS V13.00,2013-05-07 04:26:00,
2013-05-06 21:31:00,66.6,52.3,29.80,South,181,0.0,0.0,60,0.00,,---,0.00,VWS V13.00,2013-05-07 04:31:00,
2013-05-06 21:36:00,66.1,52.3,29.81,South,181,0.0,0.0,61,0.00,,---,0.00,VWS V13.00,2013-05-07 04:36:00,
2013-05-06 21:41:00,65.6,52.2,29.81,South,181,0.0,0.0,62,0.00,,---,0.00,VWS V13.00,2013-05-07 04:41:00,
2013-05-06 21:46:00,65.0,52.5,29.81,South,181,0.0,0.0,64,0.00,,---,0.00,VWS V13.00,2013-05-07 04:46:00,
2013-05-06 21:51:00,64.5,52.1,29.82,South,181,0.0,0.0,64,0.00,,---,0.00,VWS V13.00,2013-05-07 04:51:00,
2013-05-06 21:56:00,64.0,52.0,29.82,South,181,0.0,0.0,65,0.00,,---,0.00,VWS V13.00,2013-05-07 04:56:00,
2013-05-06 22:01:00,63.7,51.7,29.82,South,181,0.0,0.0,65,0.00,,---,0.00,VWS V13.00,2013-05-07 05:01:00,
2013-05-06 22:06:00,63.1,52.0,29.82,South,181,0.0,0.0,67,0.00,,---,0.00,VWS V13.00,2013-05-07 05:06:00,
2013-05-06 22:11:00,62.7,51.6,29.82,South,181,0.0,0.0,67,0.00,,---,0.00,VWS V13.00,2013-05-07 05:11:00,
2013-05-06 22:16:00,62.3,51.6,29.82,South,181,0.0,0.0,68,0.00,,---,0.00,VWS V13.00,2013-05-07 05:16:00,
2013-05-06 22:21:00,62.0,51.7,29.82,South,181,0.0,0.0,69,0.00,,---,0.00,VWS V13.00,2013-05-07 05:21:00,
2013-05-06 22:26:00,61.6,51.3,29.82,South,181,0.0,0.0,69,0.00,,---,0.00,VWS V13.00,2013-05-07 05:26:00,
2013-05-06 22:31:00,61.3,51.5,29.82,South,181,0.0,0.0,70,0.00,,---,0.00,VWS V13.00,2013-05-07 05:31:00,
2013-05-06 22:36:00,61.0,51.2,29.82,South,181,0.0,0.0,70,0.00,,---,0.00,VWS V13.00,2013-05-07 05:36:00,
2013-05-06 22:41:00,60.7,51.2,29.82,South,181,0.0,0.0,71,0.00,,---,0.00,VWS V13.00,2013-05-07 05:41:00,
2013-05-06 22:46:00,60.4,51.3,29.82,South,181,0.0,0.0,72,0.00,,---,0.00,VWS V13.00,2013-05-07 05:46:00,
2013-05-06 22:51:00,60.1,51.1,29.82,South,181,0.0,0.0,72,0.00,,---,0.00,VWS V13.00,2013-05-07 05:51:00,
2013-05-06 22:56:00,59.9,51.2,29.82,South,181,0.0,0.0,73,0.00,,---,0.00,VWS V13.00,2013-05-07 05:56:00,
2013-05-06 23:01:00,59.6,51.0,29.82,South,181,0.0,0.0,73,0.00,,---,0.00,VWS V13.00,2013-05-07 06:01:00,
2013-05-06 23:06:00,59.3,51.0,29.83,South,181,0.0,0.0,74,0.00,,---,0.00,VWS V13.00,2013-05-07 06:06:00,
2013-05-06 23:11:00,59.2,50.9,29.83,South,181,0.0,0.0,74,0.00,,---,0.00,VWS V13.00,2013-05-07 06:11:00,
2013-05-06 23:16:00,58.9,50.6,29.83,South,181,0.0,0.0,74,0.00,,---,0.00,VWS V13.00,2013-05-07 06:16:00,
2013-05-06 23:21:00,58.7,50.8,29.82,South,181,0.0,0.0,75,0.00,,---,0.00,VWS V13.00,2013-05-07 06:21:00,
2013-05-06 23:26:00,58.4,50.9,29.82,South,181,0.0,0.0,76,0.00,,---,0.00,VWS V13.00,2013-05-07 06:26:00,
2013-05-06 23:31:00,58.3,50.8,29.82,South,181,0.0,0.0,76,0.00,,---,0.00,VWS V13.00,2013-05-07 06:31:00,
2013-05-06 23:36:00,58.0,50.8,29.83,South,181,0.0,0.0,77,0.00,,---,0.00,VWS V13.00,2013-05-07 06:36:00,
2013-05-06 23:41:00,57.6,50.5,29.83,South,181,0.0,0.0,77,0.00,,---,0.00,VWS V13.00,2013-05-07 06:41:00,
2013-05-06 23:46:00,57.3,50.5,29.83,South,181,0.0,0.0,78,0.00,,---,0.00,VWS V13.00,2013-05-07 06:46:00,
2013-05-06 23:51:00,57.0,50.2,29.83,South,181,0.0,0.0,78,0.00,,---,0.00,VWS V13.00,2013-05-07 06:51:00,
2013-05-06 23:56:00,56.9,50.1,29.83,South,181,0.0,0.0,78,0.00,,---,0.00,VWS V13.00,2013-05-07 06:56:00,